Starlink 2704

operational
NORAD ID: 48643 Int'l Des: 2021-044 Owner: SPXS Country: US Constellation: starlink
LEOCIRCULARSTARLINK_TYPE

关于 Starlink 2704

正在加载描述...

实时位置

正在加载3D地球...

即将过境

高度历史

Altitude vs Time

uPlot chart will show altitude changes over time

两行轨道根数

1 48643U 21044F 26035.66668981 .00032850 00000-0 11174-2 0 9996
2 48643 53.1573 267.2465 0001316 90.6379 242.7862 15.30170318 5744
Epoch: Feb 4, 2026 • Age: 9 hours

当前状态

高度 492.0 km
速度 7.62 km/s
星下点 -46.74°S, 59.32°E
发射日期 May 26, 2021
运行时间 4.6 years
类型 internet

技术详情

分类 Payload
质量 260.00 kg
干质量 248.00 kg
总质量 260.00 kg
长度 0.20 m
直径 2.80 m
跨度 9.00 m
形状 Box + pan
制造商 SPXS
平台类型 Starlink
阶段状态 In Orbit
所有者/国家 SPXS/US

大型星座

Loading constellations...